sat.trackr.live / text

‹ back to catalog

STARLINK-5417

NORAD 54805 · 2022-175AZ

PAYLOAD ACTIVE UNKNOWN

§ Identity

Operator
Country
US
Launch date
2022-12-17
Launch site
AFETR
Launch vehicle
Mass (kg)
RCS (m²)

Purposes: comms

External: N2YO · Heavens-Above · Gunter

§ Orbital elements

Epoch: 2026-09-20T10:27:01.608192Z

Period
95.49 min
Inclination
53.1580°
Eccentricity
0.0001423
Mean motion
15.08012283 rev/d
Perigee alt
541.3 km
Apogee alt
543.3 km
Semi-major
6,920.4 km
B*
-1.0420e-4
RAAN
234.8565°
Arg perigee
72.7349°
Mean anomaly
287.3797°
Rev number
20,952

§ Raw data

STARLINK-54171 54805U 22175AZ  26263.43543528 -.00001907  00000+0 -10420-3 0  99902 54805  53.1580 234.8565 0001423  72.7349 287.3797 15.08012283209522

JSON: /api/v1/satellites/54805 · /tle

For live sub-satellite position, see the globe view (requires WebGL).

§ Visibility from observer

Set your observer location to see the next 7 days of passes ≥ 10°. The values pass through the URL so the page stays shareable.

No JS? Fill the form by hand. The geolocation button needs JavaScript.